User: anonymous   Login
Location: Unspecified
(0.0000°N, 0.0000°E)
Time: 12:48:28
(UTC+00:00)
Language:

JASON 3 - Orbit

View from above orbital plane
View from above orbital plane
View from above satellite
View from above satellite

Ground track
Ground track

The orbit data is extracted from the following two-line orbital elements,

1 41240U 16002A   18200.80729758 -.00000048  00000-0  54502-4 0  9990
2 41240  66.0419  16.2760 0007755 266.7198  93.2930 12.80930705117071
Epoch (UTC): 19 July 2018 19:22:30
Eccentricity: 0.0007755
inclination: 66.0419°
perigee height: 1332 km
apogee height: 1344 km
right ascension of ascending node: 16.2760°
argument of perigee: 266.7198°
revolutions per day: 12.80930705
mean anomaly at epoch: 93.2930°
orbit number at epoch: 11707

The dashed part of the orbit path shows where the satellite is in the earth's shadow,  

DLR